EW9023 Weather Reports


Display with metric or nautical units.
time (UTC)temp
F
wind
direction
speed
MPH
gust
MPH
rain 1hr
in
rain 24hr
in
rain mn
in
humidity
%
barometer
mb
20191114233616 80 225 3.0 4.0 0.00 0.00 0.00 56 1013.5
20191114232616 80 225 4.0 5.0 0.00 0.00 0.00 56 1013.4
20191114231616 80 225 6.0 7.0 0.00 0.00 0.00 56 1013.4
20191114230616 80 247 5.0 8.0 0.00 0.00 0.00 55 1013.5
20191114225616 81 247 6.0 8.0 0.00 0.00 0.00 56 1013.6
20191114224616 81 247 7.0 9.0 0.00 0.00 0.00 55 1013.6
20191114223616 81 225 6.0 9.0 0.00 0.00 0.00 54 1013.6
20191114222616 81 225 5.0 5.0 0.00 0.00 0.00 53 1013.7
20191114221616 81 247 5.0 8.0 0.00 0.00 0.00 53 1013.8
20191114220616 81 225 6.0 7.0 0.00 0.00 0.00 56 1013.8
20191114215621 81 225 8.0 12.0 0.00 0.00 0.00 54 1013.8
20191114214616 82 225 6.0 8.0 0.00 0.00 0.00 53 1013.9
20191114213619 82 202 7.0 9.0 0.00 0.00 0.00 53 1014.0
20191114212616 82 247 4.0 7.0 0.00 0.00 0.00 53 1014.0
20191114211616 82 225 7.0 10.0 0.00 0.00 0.00 51 1014.0
20191114210616 82 225 6.0 8.0 0.00 0.00 0.00 53 1014.1
20191114205616 82 202 9.0 11.0 0.00 0.00 0.00 54 1014.2
20191114204616 82 225 4.0 6.0 0.00 0.00 0.00 53 1014.3
20191114203615 81 225 6.0 10.0 0.00 0.00 0.00 54 1014.4
20191114202616 82 225 9.0 12.0 0.00 0.00 0.00 54 1014.6
20191114201616 82 225 6.0 9.0 0.00 0.00 0.00 54 1014.7
20191114200616 82 225 5.0 7.0 0.00 0.00 0.00 52 1014.8
20191114195616 82 202 6.0 8.0 0.00 0.00 0.00 54 1014.9
20191114194616 82 225 6.0 8.0 0.00 0.00 0.00 53 1015.0
20191114193616 82 247 4.0 7.0 0.00 0.00 0.00 52 1015.0
20191114192617 83 202 5.0 9.0 0.00 0.00 0.00 51 1015.4
20191114191617 83 225 2.0 3.0 0.00 0.00 0.00 55 1015.5
20191114190617 82 247 4.0 7.0 0.00 0.00 0.00 52 1015.6
20191114185616 82 202 2.0 3.0 0.00 0.00 0.00 55 1015.7
20191114184621 81 247 4.0 8.0 0.00 0.00 0.00 59 1015.8
20191114183616 82 225 4.0 7.0 0.00 0.00 0.00 55 1016.0
20191114182617 82 157 3.0 4.0 0.00 0.00 0.00 54 1016.1
20191114181616 81 157 3.0 6.0 0.00 0.00 0.00 55 1016.2
20191114180616 81 180 1.0 3.0 0.00 0.00 0.00 56 1016.3
20191114175616 81 135 2.0 3.0 0.00 0.00 0.00 57 1016.4
20191114174616 80 157 2.0 3.0 0.00 0.00 0.00 58 1016.5
20191114173615 80 135 1.0 2.0 0.00 0.00 0.00 59 1016.7
20191114172712 80 135 3.0 4.0 0.00 0.00 0.00 58 1016.7
20191114171615 79 112 1.0 1.0 0.00 0.00 0.00 62 1016.8
20191114170616 78 112 2.0 2.0 0.00 0.00 0.00 63 1016.8
20191114165615 78 112 2.0 3.0 0.00 0.00 0.00 62 1016.8
20191114164619 77 112 2.0 4.0 0.00 0.00 0.00 65 1016.7
20191114163616 76 90 1.0 2.0 0.00 0.00 0.00 67 1016.8
20191114162616 74 0.0 0.0 0.00 0.00 0.00 72 1016.7
20191114161615 73 22 2.0 2.0 0.00 0.00 0.00 74 1016.6
20191114160615 71 22 2.0 2.0 0.00 0.00 0.00 77 1016.5
20191114155616 70 22 2.0 3.0 0.00 0.00 0.00 79 1016.5
20191114154615 69 22 2.0 3.0 0.00 0.00 0.00 81 1016.4
20191114153616 68 22 2.0 3.0 0.00 0.00 0.00 82 1016.4
20191114152615 66 22 2.0 4.0 0.00 0.00 0.00 86 1016.3
20191114151615 65 22 2.0 3.0 0.00 0.00 0.00 89 1016.4
20191114150617 63 22 2.0 3.0 0.00 0.00 0.00 90 1016.3
20191114145618 62 0.0 0.0 0.00 0.00 0.00 92 1016.2
20191114144617 61 0.0 0.0 0.00 0.00 0.00 92 1016.0
20191114143618 60 0.0 0.0 0.00 0.00 0.00 92 1015.9
20191114142618 59 0.0 0.0 0.00 0.00 0.00 93 1015.7
20191114141618 58 0.0 0.0 0.00 0.00 0.00 92 1015.6
20191114140617 57 0.0 0.0 0.00 0.00 0.00 92 1015.6
20191114135622 57 0.0 0.0 0.00 0.00 0.00 92 1015.4
20191114134617 57 0.0 0.0 0.00 0.00 0.00 92 1015.3
20191114133617 57 67 2.0 2.0 0.00 0.00 0.00 92 1015.1
20191114132617 57 0.0 0.0 0.00 0.00 0.00 92 1015.1
20191114131617 58 0.0 0.0 0.00 0.00 0.00 92 1014.9
20191114130615 58 112 1.0 2.0 0.00 0.00 0.00 92 1014.8
20191114125617 58 112 1.0 2.0 0.00 0.00 0.00 92 1014.7
20191114124617 58 0.0 0.0 0.00 0.00 0.00 92 1014.5
20191114123617 58 0.0 0.0 0.00 0.00 0.00 93 1014.5
20191114122619 58 0.0 0.0 0.00 0.00 0.00 93 1014.4
20191114121750 57 0.0 0.0 0.00 0.00 0.00 93 1014.4
20191114120635 57 0.0 0.0 0.00 0.00 0.00 93 1014.4
20191114115617 57 0.0 0.0 0.00 0.00 0.00 93 1014.4
20191114114617 57 0.0 0.0 0.00 0.00 0.00 92 1014.4
20191114113617 57 0.0 0.0 0.00 0.00 0.00 93 1014.3
20191114112617 57 0.0 0.0 0.00 0.00 0.00 92 1014.3
20191114111625 57 0.0 0.0 0.00 0.00 0.00 93 1014.2
20191114110617 57 0.0 0.0 0.00 0.00 0.00 93 1014.2
20191114105618 58 0.0 0.0 0.00 0.00 0.00 93 1014.2
20191114104617 58 0.0 0.0 0.00 0.00 0.00 93 1014.2
20191114103617 58 0.0 0.0 0.00 0.00 0.00 93 1014.2
20191114102617 58 0.0 0.0 0.00 0.00 0.00 93 1014.1
20191114101617 59 0.0 0.0 0.00 0.00 0.00 93 1014.2
20191114100616 59 0.0 0.0 0.00 0.00 0.00 94 1014.1
20191114095648 59 135 2.0 2.0 0.00 0.00 0.00 94 1014.2
20191114094617 58 157 1.0 2.0 0.00 0.00 0.00 94 1014.1
20191114093617 58 0.0 0.0 0.00 0.00 0.00 94 1014.0
20191114092619 58 0.0 0.0 0.00 0.00 0.00 94 1014.0
20191114091638 58 0.0 0.0 0.00 0.00 0.00 94 1014.1
20191114090618 58 0.0 0.0 0.00 0.00 0.00 94 1014.1
20191114085617 58 0.0 0.0 0.00 0.00 0.00 94 1014.0
20191114084616 58 0.0 0.0 0.00 0.00 0.00 94 1014.1
20191114083632 58 0.0 0.0 0.00 0.00 0.00 94 1014.0
20191114082617 58 0.0 0.0 0.00 0.00 0.00 94 1014.0
20191114081617 59 0.0 0.0 0.00 0.00 0.00 94 1014.0
20191114080616 59 0.0 0.0 0.00 0.00 0.00 94 1014.0
20191114075616 59 0.0 0.0 0.00 0.00 0.00 94 1013.9
20191114074616 59 0.0 0.0 0.00 0.00 0.00 94 1014.0
20191114073729 60 0.0 0.0 0.00 0.00 0.00 93 1013.9
20191114072617 60 0.0 0.0 0.00 0.00 0.00 94 1013.9
20191114070618 60 0.0 0.0 0.00 0.00 0.00 93 1014.0
20191114065618 59 0.0 0.0 0.00 0.00 0.00 93 1013.8
20191114064648 60 0.0 0.0 0.00 0.00 0.00 92 1013.7
20191114063617 60 0.0 0.0 0.00 0.00 0.00 93 1013.7
20191114062617 60 0.0 0.0 0.00 0.00 0.00 92 1013.7
20191114061617 60 0.0 0.0 0.00 0.00 0.00 92 1013.6
20191114060617 60 0.0 0.0 0.00 0.00 0.00 92 1013.7
20191114055617 60 0.0 0.0 0.00 0.00 0.00 91 1013.7
20191114054617 61 0.0 0.0 0.00 0.00 0.00 91 1013.7
20191114053617 61 0.0 0.0 0.00 0.00 0.00 91 1013.7
20191114052619 61 0.0 0.0 0.00 0.00 0.00 91 1013.6
20191114051631 62 0.0 0.0 0.00 0.00 0.00 91 1013.7
20191114050617 62 0.0 0.0 0.00 0.00 0.00 91 1013.6
20191114045617 63 0.0 0.0 0.00 0.00 0.00 91 1013.6
20191114044617 63 0.0 0.0 0.00 0.00 0.00 91 1013.5
20191114043617 63 0.0 0.0 0.00 0.00 0.00 90 1013.5
20191114042617 64 0.0 0.0 0.00 0.00 0.00 90 1013.5
20191114041617 65 0.0 0.0 0.00 0.00 0.00 90 1013.4
20191114040617 65 0.0 0.0 0.00 0.00 0.00 90 1013.4
20191114035617 65 0.0 0.0 0.00 0.00 0.00 90 1013.3
20191114034616 65 0.0 0.0 0.00 0.00 0.00 89 1013.3
20191114033617 66 0.0 0.0 0.00 0.00 0.00 89 1013.3
20191114032617 66 0.0 0.0 0.00 0.00 0.00 89 1013.2
20191114031616 66 0.0 0.0 0.00 0.00 0.00 88 1013.1
20191114030617 66 0.0 0.0 0.00 0.00 0.00 87 1013.0
20191114025617 67 0.0 0.0 0.00 0.00 0.00 86 1012.9
20191114024616 67 0.0 0.0 0.00 0.00 0.00 85 1012.8
20191114023616 67 0.0 0.0 0.00 0.00 0.00 85 1012.8
20191114022616 68 0.0 0.0 0.00 0.00 0.00 84 1012.7
20191114021617 68 0.0 0.0 0.00 0.00 0.00 83 1012.6
20191114020617 68 0.0 0.0 0.00 0.00 0.00 82 1012.4
20191114015617 68 0.0 0.0 0.00 0.00 0.00 83 1012.3
20191114014617 68 180 1.0 1.0 0.00 0.00 0.00 83 1012.2
20191114013617 69 180 1.0 2.0 0.00 0.00 0.00 82 1012.1
20191114012617 70 180 2.0 4.0 0.00 0.00 0.00 82 1011.9
20191114011617 70 180 3.0 5.0 0.00 0.00 0.00 80 1011.9
20191114010617 71 180 3.0 5.0 0.00 0.00 0.00 79 1011.8
20191114005617 72 180 3.0 3.0 0.00 0.00 0.00 78 1011.8
20191114004616 72 180 5.0 7.0 0.00 0.00 0.00 76 1011.6
20191114003616 73 180 4.0 6.0 0.00 0.00 0.00 75 1011.5
20191114002616 74 180 4.0 6.0 0.00 0.00 0.00 72 1011.5
20191114001616 75 180 3.0 4.0 0.00 0.00 0.00 70 1011.4
20191114000617 76 180 4.0 6.0 0.00 0.00 0.00 66 1011.4
20191113235616 76 180 4.0 5.0 0.00 0.00 0.00 63 1011.2
20191113234616 77 202 4.0 7.0 0.00 0.00 0.00 61 1011.2